Weather History for EIKN - May, 2013

Change the Weather History Date:

Friday, May 3, 2013

  Actual Average Record
Temperature  
Mean Temperature 48 °F -  
Max Temperature 50 °F - - ()
Min Temperature 46 °F - - ()
Degree Days  
Heating Degree Days 17    
Moisture  
Dew Point 48 °F    
Average Humidity 97    
Maximum Humidity 100    
Minimum Humidity 93    
Precipitation  
Precipitation 0.39 in - - ()
Sea Level Pressure  
Sea Level Pressure 29.89 in    
Wind  
Wind Speed 15 mph ()    
Max Wind Speed 21 mph    
Max Gust Speed 34 mph    
Visibility 5.0 miles    
Events Rain    
T = Trace of Precipitation, MM = Missing Value Source: Averaged Metar Reports

Daily Weather History Graph

Daily Weather History Graph

Search for Another Location

Airport or City:

Trip Planner

Search our weather history database for the weather conditions in past years. The results will help you decide how hot, cold, wet, or windy it might be!

Date:

Astronomy

May. 03, 2013 Rise Set
Actual Time 5:54 AM IST 9:10 PM IST
Civil Twilight 5:13 AM IST 9:52 PM IST
Nautical Twilight 4:16 AM IST 10:49 PM IST
Astronomical Twilight 2:58 AM IST 12:10 AM IST
Moon 3:10 AM IST (5/3) 1:54 PM IST (5/3)
Length of Visible Light 16h 39m
Length of Day
15h 15m
Last Quarter, 39% of the Moon is Illuminated
May 3
Last Quarter
May 10
New
May 18
First Quarter
May 25
Full
May 31
Last Quarter

Hourly Weather History & Observations

Time (IST) Temp. Windchill Dew Point Humidity Pressure Visibility Wind Dir Wind Speed Gust Speed Precip Events Conditions
1:00 AM 47 °F - 46 °F 96% 30.06 in - South 8.9 mph - -  
6:00 AM 46.4 °F 40.7 °F 46.4 °F 100% 29.95 in 1.9 mi SSW 12.7 mph - N/A Rain Light Rain
6:30 AM 46.4 °F 40.4 °F 46.4 °F 100% 29.95 in 3.1 mi SSW 13.8 mph - N/A Rain Light Rain
7:00 AM 47 °F - 47 °F 100% 29.96 in 4 mi SSW 15.7 mph - - Rain Light Rain
7:00 AM 48.2 °F - 46.4 °F 93% 29.95 in 3.7 mi SSW 16.1 mph - N/A Rain Light Rain
7:30 AM 48.2 °F - 46.4 °F 93% 29.92 in 3.7 mi SSW 16.1 mph - N/A Rain Light Rain
8:00 AM 48.2 °F - 48.2 °F 100% 29.92 in 5.0 mi SSW 18.4 mph - N/A Rain Light Rain
8:30 AM 48.2 °F - 48.2 °F 100% 29.92 in 6.2 mi SSW 17.3 mph - N/A Rain Light Rain
9:00 AM 48.2 °F - 48.2 °F 100% 29.89 in 4.3 mi SSW 19.6 mph - N/A Rain Light Rain
9:30 AM 48.2 °F - 48.2 °F 100% 29.89 in 6.2 mi SSW 18.4 mph - N/A Rain Light Rain
10:00 AM 48.2 °F - 48.2 °F 100% 29.89 in 6.2 mi SSW 19.6 mph - N/A Rain Light Rain
10:30 AM 50.0 °F - 48.2 °F 94% 29.89 in 6.2 mi SSW 19.6 mph - N/A Rain Light Rain
11:00 AM 50.0 °F - 48.2 °F 94% 29.89 in 6.2 mi SSW 20.7 mph - N/A Rain Light Rain
11:30 AM 50.0 °F - 48.2 °F 94% 29.89 in 5.0 mi SSW 18.4 mph - N/A Rain Light Rain
12:00 PM 50.0 °F - 48.2 °F 94% 29.89 in 6.2 mi SW 20.7 mph 34.5 mph N/A Rain Light Rain
12:30 PM 50.0 °F - 50.0 °F 100% 29.86 in 6.2 mi SSW 18.4 mph 29.9 mph N/A Rain Light Rain
1:00 PM 50 °F - 49 °F 95% 29.89 in 4 mi SW 20.1 mph - - Rain Light Rain
1:00 PM 50.0 °F - 50.0 °F 100% 29.86 in 3.7 mi SW 20.7 mph 33.4 mph N/A Rain Light Rain
1:30 PM 50.0 °F - 50.0 °F 100% 29.86 in 3.1 mi SW 19.6 mph - N/A Rain Light Rain
2:00 PM 50.0 °F - 50.0 °F 100% 29.86 in 2.8 mi SW 19.6 mph 32.2 mph N/A Rain Light Rain
2:30 PM 50.0 °F - 50.0 °F 100% 29.86 in 3.1 mi SSW 17.3 mph - N/A Rain Light Rain
3:00 PM 50.0 °F - 48.2 °F 94% 29.83 in 3.7 mi SW 19.6 mph 34.5 mph N/A Rain Light Rain
3:30 PM 50.0 °F - 50.0 °F 100% 29.83 in 1.5 mi SW 19.6 mph - N/A Rain Light Rain
4:00 PM 48.2 °F - 46.4 °F 93% 29.83 in 6.2 mi WSW 17.3 mph - N/A Rain Light Rain
4:30 PM 48.2 °F - 48.2 °F 100% 29.83 in 6.2 mi WSW 18.4 mph - N/A Rain Light Rain
5:00 PM 48.2 °F - 48.2 °F 100% 29.83 in 6.2 mi WSW 17.3 mph - N/A   Overcast
5:30 PM 48.2 °F - 46.4 °F 93% 29.83 in 6.2 mi WSW 18.4 mph - N/A   Mostly Cloudy
6:00 PM 48.2 °F - 48.2 °F 100% 29.83 in 6.2 mi West 13.8 mph 25.3 mph N/A Rain Light Rain
7:00 PM 48 °F - 47 °F 94% 29.85 in 12 mi WSW 13.4 mph - - Rain Light Rain